Location: San Martino di Castrozza
(46.2667°N, 11.8000°E)
Time: 15:08:34
(UTC+00:00)

CZ-2D R/B - Pass Details

Date: 23 April 2021
Orbit: 792 x 844 km, 98.7° (Epoch: 12 May)

Event Time Altitude Azimuth Distance (km) Brightness Sun altitude
Rises 00:25:20 0° 18° (NNE) 3,415 6.6 -28.9°
Reaches altitude 10° 00:27:48 10° 24° (NNE) 2,475 5.6 -28.7°
Maximum altitude 00:33:09 51° 100° (E) 1,057 2.7 -28.4°
Enters shadow 00:33:21 50° 108° (ESE) 1,060 2.6 -28.4°
